FENGYUN 1C DEB

Satellite information

Favourite Embed

Satellite Type and Status

DEBRISIN ORBIT

Key statistics

Satellite FENGYUN 1C DEB at a glance.

Uptime

9715

Days in orbit

Revolutions

≈ 14.6

Per day

Orbit

SSO

Sun Synchronous Orbit

Inclination

97.2

Latest

Satellite identification and parameters

Extended collection of information and parameters for FENGYUN 1C DEB.

Object identification

Identified? True

Debris? True

Object name: FENGYUN 1C DEB

International designator: 1999-025ZC

Object number (NORAD): 30291

Object ID (CCSDS): 30291

Country: PEOPLES REPUBLIC OF CHINA (PRC)

Current information (Y/N): Y

RCS size: SMALL

Orbital parameters

Period: 98.951 minutes

Inclination: 97.2319 deg

SMA: 7086.632 km

Apoapsis: 787.646 km

Periapsis: 629.349 km

RAAN: 236.307 deg

Eccentricy: 0.01116869

Argument of periapsis: 16.3111 deg

Mean anomaly: 43.0639 deg

Mean motion: 14.55267741 rev/day

Mean motion (dot): 0.00014846 rev/day2

B* drag term: 0.00315487 1/REarth

Two-line elements (TLE)

Creation date: Dec. 14, 2025, 3:07 a.m.

Reference frame: TEME

Reference center: EARTH

Epoch: Dec. 13, 2025, 3:17 p.m. UTC

TLE line 0: 0 FENGYUN 1C DEB

TLE line 1: 1 30291U 99025ZC 25347.63734037 .00014846 00000-0 31549-2 0 9991

TLE line 2: 2 30291 97.2319 236.3070 0111687 16.3111 43.0639 14.55267741977219

Live tracking on map

Real-time ground track for satellite FENGYUN 1C DEB.

In-orbit conjunctions

A list of the most updated potential collisions computed for object FENGYUN 1C DEB.

Target Orbit TCA Probability of collision Miss distance Type
CZ-6A DEB LEO 2024-11-11 11:53:41 0.0005993315 740.0 (m) DEBRIS
SL-8 R/B LEO 2024-07-29 23:03:39 0.0001770595 289.0 (m) ROCKET BODY
CZ-6 R/B LEO 2024-07-10 10:33:53 0.0001051161 764.0 (m) ROCKET BODY

Associated space launch

Chinese polar orbiting meteorological satellite

FENGYUN 1C DEB was lifted into orbit during the mission ‘Long March 4B | Feng Yun 1C’, on board a Long March 4B space rocket.

The launch took place on May 10, 1999, 1:33 a.m. from Launch Complex 7.

For more information about the launch, click the button.

Launch to space Long March 4B | Feng Yun 1C
Long March 4B | Feng Yun 1C

Agency: N/A

Status: Launch Successful

Launch date: May 10, 1999, 1:33 a.m. UTC

Rocket: Long March 4B

Launch pad: Launch Complex 7

Location: Taiyuan Satellite Launch Center, People's Republic of China

...

Latest news about this satellite

There are no fresh news available about this satellite. Check back as we update our databases every day.


Newsletter sign-up

Weekly statistics, charts and insights to help you stay on top of the space industry.